Year,Month,Day,Hour,Minute,Value (Times are PST for temperature in C)
2015,10,16,00,00,9.80
2015,10,16,00,01,9.80
2015,10,16,00,02,9.80
2015,10,16,00,03,9.80
2015,10,16,00,04,9.80
2015,10,16,00,05,9.80
2015,10,16,00,06,9.80
2015,10,16,00,07,9.70
2015,10,16,00,08,9.70
2015,10,16,00,09,9.70
2015,10,16,00,10,9.70
2015,10,16,00,11,9.70
2015,10,16,00,12,9.60
2015,10,16,00,13,9.60
2015,10,16,00,14,9.60
2015,10,16,00,15,9.60
2015,10,16,00,16,9.60
2015,10,16,00,17,9.60
2015,10,16,00,18,9.50
2015,10,16,00,19,9.50
2015,10,16,00,20,9.40
2015,10,16,00,21,9.40
2015,10,16,00,22,9.40
2015,10,16,00,23,9.40
2015,10,16,00,24,9.30
2015,10,16,00,25,9.30
2015,10,16,00,26,9.30
2015,10,16,00,27,9.30
2015,10,16,00,28,9.20
2015,10,16,00,29,9.20
2015,10,16,00,30,9.10
2015,10,16,00,31,9.10
2015,10,16,00,32,9.10
2015,10,16,00,33,9.10
2015,10,16,00,34,9.00
2015,10,16,00,35,9.00
2015,10,16,00,36,9.00
2015,10,16,00,37,9.00
2015,10,16,00,38,9.00
2015,10,16,00,39,9.00
2015,10,16,00,40,9.10
2015,10,16,00,41,9.10
2015,10,16,00,42,9.10
2015,10,16,00,43,9.10
2015,10,16,00,44,9.20
2015,10,16,00,45,9.20
2015,10,16,00,46,9.20
2015,10,16,00,47,9.20
2015,10,16,00,48,9.20
2015,10,16,00,49,9.20
2015,10,16,00,50,9.30
2015,10,16,00,51,9.30
2015,10,16,00,52,9.30
2015,10,16,00,53,9.30
2015,10,16,00,54,9.30
2015,10,16,00,55,9.30
2015,10,16,00,56,9.30
2015,10,16,00,57,9.30
2015,10,16,00,58,9.30
2015,10,16,00,59,9.30
2015,10,16,01,00,9.30
2015,10,16,01,01,9.30
2015,10,16,01,02,9.30
2015,10,16,01,03,9.30
2015,10,16,01,04,9.30
2015,10,16,01,05,9.30
2015,10,16,01,06,9.30
2015,10,16,01,07,9.30
2015,10,16,01,08,9.20
2015,10,16,01,09,9.20
2015,10,16,01,10,9.20
2015,10,16,01,11,9.20
2015,10,16,01,12,9.20
2015,10,16,01,13,9.20
2015,10,16,01,14,9.20
2015,10,16,01,15,9.20
2015,10,16,01,16,9.20
2015,10,16,01,17,9.20
2015,10,16,01,18,9.20
2015,10,16,01,19,9.30
2015,10,16,01,20,9.20
2015,10,16,01,21,9.20
2015,10,16,01,22,9.20
2015,10,16,01,23,9.20
2015,10,16,01,24,9.20
2015,10,16,01,25,9.20
2015,10,16,01,26,9.20
2015,10,16,01,27,9.20
2015,10,16,01,28,9.10
2015,10,16,01,29,9.10
2015,10,16,01,30,9.10
2015,10,16,01,31,9.10
2015,10,16,01,32,9.10
2015,10,16,01,33,9.10
2015,10,16,01,34,9.10
2015,10,16,01,35,9.10
2015,10,16,01,36,9.00
2015,10,16,01,37,9.00
2015,10,16,01,38,9.00
2015,10,16,01,39,8.90
2015,10,16,01,40,8.90
2015,10,16,01,41,8.90
2015,10,16,01,42,8.90
2015,10,16,01,43,8.80
2015,10,16,01,44,8.80
2015,10,16,01,45,8.80
2015,10,16,01,46,8.80
2015,10,16,01,47,8.80
2015,10,16,01,48,8.70
2015,10,16,01,49,8.70
2015,10,16,01,50,8.70
2015,10,16,01,51,8.70
2015,10,16,01,52,8.70
2015,10,16,01,53,8.70
2015,10,16,01,54,8.70
2015,10,16,01,55,8.70
2015,10,16,01,56,8.70
2015,10,16,01,57,8.70
2015,10,16,01,58,8.70
2015,10,16,01,59,8.70
2015,10,16,02,00,8.70
2015,10,16,02,01,8.70
2015,10,16,02,02,8.70
2015,10,16,02,03,8.70
2015,10,16,02,04,8.60
2015,10,16,02,05,8.60
2015,10,16,02,06,8.60
2015,10,16,02,07,8.50
2015,10,16,02,08,8.50
2015,10,16,02,09,8.40
2015,10,16,02,10,8.40
2015,10,16,02,11,8.30
2015,10,16,02,12,8.30
2015,10,16,02,13,8.30
2015,10,16,02,14,8.30
2015,10,16,02,15,8.30
2015,10,16,02,16,8.30
2015,10,16,02,17,8.20
2015,10,16,02,18,8.30
2015,10,16,02,19,8.30
2015,10,16,02,20,8.30
2015,10,16,02,21,8.30
2015,10,16,02,22,8.30
2015,10,16,02,23,8.20
2015,10,16,02,24,8.20
2015,10,16,02,25,8.20
2015,10,16,02,26,8.20
2015,10,16,02,27,8.20
2015,10,16,02,28,8.20
2015,10,16,02,29,8.20
2015,10,16,02,30,8.20
2015,10,16,02,31,8.10
2015,10,16,02,32,8.10
2015,10,16,02,33,8.10
2015,10,16,02,34,8.10
2015,10,16,02,35,8.20
2015,10,16,02,36,8.20
2015,10,16,02,37,8.20
2015,10,16,02,38,8.10
2015,10,16,02,39,8.20
2015,10,16,02,40,8.10
2015,10,16,02,41,8.10
2015,10,16,02,42,8.10
2015,10,16,02,43,8.10
2015,10,16,02,44,8.20
2015,10,16,02,45,8.20
2015,10,16,02,46,8.20
2015,10,16,02,47,8.10
2015,10,16,02,48,8.10
2015,10,16,02,49,8.10
2015,10,16,02,50,8.10
2015,10,16,02,51,8.10
2015,10,16,02,52,8.10
2015,10,16,02,53,8.10
2015,10,16,02,54,8.00
2015,10,16,02,55,8.00
2015,10,16,02,56,8.00
2015,10,16,02,57,8.00
2015,10,16,02,58,8.00
2015,10,16,02,59,7.90
2015,10,16,03,00,7.90
2015,10,16,03,01,7.90
2015,10,16,03,02,7.90
2015,10,16,03,03,7.90
2015,10,16,03,04,7.90
2015,10,16,03,05,7.90
2015,10,16,03,06,7.80
2015,10,16,03,07,7.80
2015,10,16,03,08,7.80
2015,10,16,03,09,7.80
2015,10,16,03,10,7.80
2015,10,16,03,11,7.80
2015,10,16,03,12,7.80
2015,10,16,03,13,7.70
2015,10,16,03,14,7.70
2015,10,16,03,15,7.70
2015,10,16,03,16,7.70
2015,10,16,03,17,7.70
2015,10,16,03,18,7.70
2015,10,16,03,19,7.70
2015,10,16,03,20,7.70
2015,10,16,03,21,7.70
2015,10,16,03,22,7.70
2015,10,16,03,23,7.60
2015,10,16,03,24,7.60
2015,10,16,03,25,7.60
2015,10,16,03,26,7.60
2015,10,16,03,27,7.50
2015,10,16,03,28,7.50
2015,10,16,03,29,7.50
2015,10,16,03,30,7.40
2015,10,16,03,31,7.40
2015,10,16,03,32,7.40
2015,10,16,03,33,7.30
2015,10,16,03,34,7.30
2015,10,16,03,35,7.30
2015,10,16,03,36,7.30
2015,10,16,03,37,7.30
2015,10,16,03,38,7.30
2015,10,16,03,39,7.30
2015,10,16,03,40,7.30
2015,10,16,03,41,7.30
2015,10,16,03,42,7.30
2015,10,16,03,43,7.30
2015,10,16,03,44,7.30
2015,10,16,03,45,7.30
2015,10,16,03,46,7.30
2015,10,16,03,47,7.30
2015,10,16,03,48,7.30
2015,10,16,03,49,7.30
2015,10,16,03,50,7.30
2015,10,16,03,51,7.20
2015,10,16,03,52,7.20
2015,10,16,03,53,7.20
2015,10,16,03,54,7.20
2015,10,16,03,55,7.20
2015,10,16,03,56,7.20
2015,10,16,03,57,7.20
2015,10,16,03,58,7.20
2015,10,16,03,59,7.20
2015,10,16,04,00,7.20
2015,10,16,04,01,7.20
2015,10,16,04,02,7.20
2015,10,16,04,03,7.20
2015,10,16,04,04,7.30
2015,10,16,04,05,7.30
2015,10,16,04,06,7.30
2015,10,16,04,07,7.30
2015,10,16,04,08,7.30
2015,10,16,04,09,7.30
2015,10,16,04,10,7.30
2015,10,16,04,11,7.30
2015,10,16,04,12,7.30
2015,10,16,04,13,7.30
2015,10,16,04,14,7.30
2015,10,16,04,15,7.30
2015,10,16,04,16,7.40
2015,10,16,04,17,7.40
2015,10,16,04,18,7.40
2015,10,16,04,19,7.40
2015,10,16,04,20,7.40
2015,10,16,04,21,7.40
2015,10,16,04,22,7.40
2015,10,16,04,23,7.40
2015,10,16,04,24,7.40
2015,10,16,04,25,7.40
2015,10,16,04,26,7.40
2015,10,16,04,27,7.50
2015,10,16,04,28,7.50
2015,10,16,04,29,7.60
2015,10,16,04,30,7.60
2015,10,16,04,31,7.60
2015,10,16,04,32,7.70
2015,10,16,04,33,7.70
2015,10,16,04,34,7.70
2015,10,16,04,35,7.70
2015,10,16,04,36,7.70
2015,10,16,04,37,7.70
2015,10,16,04,38,7.70
2015,10,16,04,39,7.70
2015,10,16,04,40,7.70
2015,10,16,04,41,7.70
2015,10,16,04,42,7.70
2015,10,16,04,43,7.70
2015,10,16,04,44,7.70
2015,10,16,04,45,7.70
2015,10,16,04,46,7.70
2015,10,16,04,47,7.70
2015,10,16,04,48,7.70
2015,10,16,04,49,7.70
2015,10,16,04,50,7.60
2015,10,16,04,51,7.60
2015,10,16,04,52,7.60
2015,10,16,04,53,7.60
2015,10,16,04,54,7.60
2015,10,16,04,55,7.60
2015,10,16,04,56,7.60
2015,10,16,04,57,7.60
2015,10,16,04,58,7.70
2015,10,16,04,59,7.70
2015,10,16,05,00,7.70
2015,10,16,05,01,7.70
2015,10,16,05,02,7.70
2015,10,16,05,03,7.80
2015,10,16,05,04,7.80
2015,10,16,05,05,7.80
2015,10,16,05,06,7.80
2015,10,16,05,07,7.80
2015,10,16,05,08,7.80
2015,10,16,05,09,7.80
2015,10,16,05,10,7.80
2015,10,16,05,11,7.80
2015,10,16,05,12,7.80
2015,10,16,05,13,7.80
2015,10,16,05,14,7.80
2015,10,16,05,15,7.80
2015,10,16,05,16,7.80
2015,10,16,05,17,7.80
2015,10,16,05,18,7.80
2015,10,16,05,19,7.80
2015,10,16,05,20,7.80
2015,10,16,05,21,7.80
2015,10,16,05,22,7.80
2015,10,16,05,23,7.80
2015,10,16,05,24,7.80
2015,10,16,05,25,7.90
2015,10,16,05,26,7.90
2015,10,16,05,27,7.90
2015,10,16,05,28,7.90
2015,10,16,05,29,7.90
2015,10,16,05,30,7.80
2015,10,16,05,31,7.90
2015,10,16,05,32,7.90
2015,10,16,05,33,7.90
2015,10,16,05,34,7.90
2015,10,16,05,35,7.90
2015,10,16,05,36,7.90
2015,10,16,05,37,7.90
2015,10,16,05,38,7.90
2015,10,16,05,39,7.90
2015,10,16,05,40,7.90
2015,10,16,05,41,8.00
2015,10,16,05,42,8.00
2015,10,16,05,43,8.00
2015,10,16,05,44,8.00
2015,10,16,05,45,8.00
2015,10,16,05,46,7.90
2015,10,16,05,47,7.90
2015,10,16,05,48,7.90
2015,10,16,05,49,7.90
2015,10,16,05,50,7.80
2015,10,16,05,51,7.80
2015,10,16,05,52,7.80
2015,10,16,05,53,7.80
2015,10,16,05,54,7.80
2015,10,16,05,55,7.80
2015,10,16,05,56,7.80
2015,10,16,05,57,7.80
2015,10,16,05,58,7.80
2015,10,16,05,59,7.80
2015,10,16,06,00,7.80
2015,10,16,06,01,7.80
2015,10,16,06,02,7.80
2015,10,16,06,03,7.80
2015,10,16,06,04,7.80
2015,10,16,06,05,7.80
2015,10,16,06,06,7.80
2015,10,16,06,07,7.80
2015,10,16,06,08,7.80
2015,10,16,06,09,7.80
2015,10,16,06,10,7.80
2015,10,16,06,11,7.80
2015,10,16,06,12,7.80
2015,10,16,06,13,7.80
2015,10,16,06,14,7.80
2015,10,16,06,15,7.80
2015,10,16,06,16,7.90
2015,10,16,06,17,7.90
2015,10,16,06,18,7.90
2015,10,16,06,19,7.90
2015,10,16,06,20,7.90
2015,10,16,06,21,8.00
2015,10,16,06,22,8.00
2015,10,16,06,23,8.00
2015,10,16,06,24,8.00
2015,10,16,06,25,8.00
2015,10,16,06,26,8.00
2015,10,16,06,27,8.00
2015,10,16,06,28,8.10
2015,10,16,06,29,8.10
2015,10,16,06,30,8.10
2015,10,16,06,31,8.10
2015,10,16,06,32,8.10
2015,10,16,06,33,8.10
2015,10,16,06,34,8.00
2015,10,16,06,35,8.00
2015,10,16,06,36,7.90
2015,10,16,06,37,8.00
2015,10,16,06,38,8.00
2015,10,16,06,39,8.00
2015,10,16,06,40,8.00
2015,10,16,06,41,8.10
2015,10,16,06,42,8.10
2015,10,16,06,43,8.10
2015,10,16,06,44,8.10
2015,10,16,06,45,8.10
2015,10,16,06,46,8.20
2015,10,16,06,47,8.10
2015,10,16,06,48,8.10
2015,10,16,06,49,8.10
2015,10,16,06,50,8.10
2015,10,16,06,51,8.10
2015,10,16,06,52,8.10
2015,10,16,06,53,8.00
2015,10,16,06,54,8.00
2015,10,16,06,55,8.00
2015,10,16,06,56,8.00
2015,10,16,06,57,8.00
2015,10,16,06,58,7.90
2015,10,16,06,59,8.00
2015,10,16,07,00,7.90
2015,10,16,07,01,7.90
2015,10,16,07,02,8.00
2015,10,16,07,03,8.00
2015,10,16,07,04,8.00
2015,10,16,07,05,7.90
2015,10,16,07,06,7.90
2015,10,16,07,07,7.90
2015,10,16,07,08,7.90
2015,10,16,07,09,7.90
2015,10,16,07,10,7.90
2015,10,16,07,11,7.90
2015,10,16,07,12,7.90
2015,10,16,07,13,7.90
2015,10,16,07,14,7.90
2015,10,16,07,15,7.90
2015,10,16,07,16,8.00
2015,10,16,07,17,8.00
2015,10,16,07,18,8.00
2015,10,16,07,19,8.00
2015,10,16,07,20,8.00
2015,10,16,07,21,8.00
2015,10,16,07,22,8.00
2015,10,16,07,23,8.00
2015,10,16,07,24,8.00
2015,10,16,07,25,7.90
2015,10,16,07,26,7.90
2015,10,16,07,27,7.90
2015,10,16,07,28,7.80
2015,10,16,07,29,7.80
2015,10,16,07,30,7.80
2015,10,16,07,31,7.80
2015,10,16,07,32,7.80
2015,10,16,07,33,7.80
2015,10,16,07,34,7.80
2015,10,16,07,35,7.80
2015,10,16,07,36,7.80
2015,10,16,07,37,7.80
2015,10,16,07,38,7.90
2015,10,16,07,39,7.90
2015,10,16,07,40,7.90
2015,10,16,07,41,7.90
2015,10,16,07,42,7.90
2015,10,16,07,43,7.90
2015,10,16,07,44,7.90
2015,10,16,07,45,7.90
2015,10,16,07,46,7.90
2015,10,16,07,47,8.00
2015,10,16,07,48,8.00
2015,10,16,07,49,8.00
2015,10,16,07,50,8.10
2015,10,16,07,51,8.10
2015,10,16,07,52,8.10
2015,10,16,07,53,8.10
2015,10,16,07,54,8.10
2015,10,16,07,55,8.10
2015,10,16,07,56,8.10
2015,10,16,07,57,8.10
2015,10,16,07,58,8.10
2015,10,16,07,59,8.10
2015,10,16,08,00,8.10
2015,10,16,08,01,8.10
2015,10,16,08,02,8.10
2015,10,16,08,03,8.10
2015,10,16,08,04,8.10
2015,10,16,08,05,8.10
2015,10,16,08,06,8.10
2015,10,16,08,07,8.10
2015,10,16,08,08,8.10
2015,10,16,08,09,8.10
2015,10,16,08,10,8.10
2015,10,16,08,11,8.10
2015,10,16,08,12,8.10
2015,10,16,08,13,8.10
2015,10,16,08,14,8.10
2015,10,16,08,15,8.10
2015,10,16,08,16,8.10
2015,10,16,08,17,8.20
2015,10,16,08,18,8.20
2015,10,16,08,19,8.20
2015,10,16,08,20,8.20
2015,10,16,08,21,8.20
2015,10,16,08,22,8.20
2015,10,16,08,23,8.20
2015,10,16,08,24,8.20
2015,10,16,08,25,8.20
2015,10,16,08,26,8.20
2015,10,16,08,27,8.20
2015,10,16,08,28,8.20
2015,10,16,08,29,8.30
2015,10,16,08,30,8.30
2015,10,16,08,31,8.30
2015,10,16,08,32,8.30
2015,10,16,08,33,8.30
2015,10,16,08,34,8.40
2015,10,16,08,35,8.40
2015,10,16,08,36,8.40
2015,10,16,08,37,8.50
2015,10,16,08,38,8.50
2015,10,16,08,39,8.50
2015,10,16,08,40,8.60
2015,10,16,08,41,8.60
2015,10,16,08,42,8.60
2015,10,16,08,43,8.70
2015,10,16,08,44,8.70
2015,10,16,08,45,8.70
2015,10,16,08,46,8.70
2015,10,16,08,47,8.70
2015,10,16,08,48,8.70
2015,10,16,08,49,8.80
2015,10,16,08,50,8.80
2015,10,16,08,51,8.80
2015,10,16,08,52,8.90
2015,10,16,08,53,8.90
2015,10,16,08,54,8.90
2015,10,16,08,55,9.00
2015,10,16,08,56,9.10
2015,10,16,08,57,9.10
2015,10,16,08,58,9.10
2015,10,16,08,59,9.20
2015,10,16,09,00,9.20
2015,10,16,09,01,9.20
2015,10,16,09,02,9.30
2015,10,16,09,03,9.30
2015,10,16,09,04,9.40
2015,10,16,09,05,9.40
2015,10,16,09,06,9.40
2015,10,16,09,07,9.50
2015,10,16,09,08,9.50
2015,10,16,09,09,9.60
2015,10,16,09,10,9.60
2015,10,16,09,11,9.60
2015,10,16,09,12,9.70
2015,10,16,09,13,9.70
2015,10,16,09,14,9.70
2015,10,16,09,15,9.80
2015,10,16,09,16,9.90
2015,10,16,09,17,10.00
2015,10,16,09,18,10.10
2015,10,16,09,19,10.10
2015,10,16,09,20,10.20
2015,10,16,09,21,10.30
2015,10,16,09,22,10.30
2015,10,16,09,23,10.40
2015,10,16,09,24,10.40
2015,10,16,09,25,10.50
2015,10,16,09,26,10.60
2015,10,16,09,27,10.60
2015,10,16,09,28,10.70
2015,10,16,09,29,10.80
2015,10,16,09,30,10.80
2015,10,16,09,31,10.90
2015,10,16,09,32,10.90
2015,10,16,09,33,11.00
2015,10,16,09,34,11.00
2015,10,16,09,35,11.10
2015,10,16,09,36,11.10
2015,10,16,09,37,11.20
2015,10,16,09,38,11.20
2015,10,16,09,39,11.30
2015,10,16,09,40,11.30
2015,10,16,09,41,11.40
2015,10,16,09,42,11.40
2015,10,16,09,43,11.50
2015,10,16,09,44,11.50
2015,10,16,09,45,11.60
2015,10,16,09,46,11.70
2015,10,16,09,47,11.70
2015,10,16,09,48,11.80
2015,10,16,09,49,11.80
2015,10,16,09,50,11.90
2015,10,16,09,51,12.00
2015,10,16,09,52,12.00
2015,10,16,09,53,12.10
2015,10,16,09,54,12.10
2015,10,16,09,55,12.20
2015,10,16,09,56,12.20
2015,10,16,09,57,12.30
2015,10,16,09,58,12.30
2015,10,16,09,59,12.40
2015,10,16,10,00,12.50
2015,10,16,10,01,12.50
2015,10,16,10,02,12.60
2015,10,16,10,03,12.60
2015,10,16,10,04,12.70
2015,10,16,10,05,12.70
2015,10,16,10,06,12.80
2015,10,16,10,07,12.80
2015,10,16,10,08,12.90
2015,10,16,10,09,12.90
2015,10,16,10,10,13.00
2015,10,16,10,11,13.10
2015,10,16,10,12,13.10
2015,10,16,10,13,13.20
2015,10,16,10,14,13.20
2015,10,16,10,15,13.30
2015,10,16,10,16,13.40
2015,10,16,10,17,13.40
2015,10,16,10,18,13.50
2015,10,16,10,19,13.60
2015,10,16,10,20,13.60
2015,10,16,10,21,13.70
2015,10,16,10,22,13.80
2015,10,16,10,23,13.80
2015,10,16,10,24,13.90
2015,10,16,10,25,13.90
2015,10,16,10,26,14.00
2015,10,16,10,27,14.10
2015,10,16,10,28,14.10
2015,10,16,10,29,14.20
2015,10,16,10,30,14.20
2015,10,16,10,31,14.30
2015,10,16,10,32,14.40
2015,10,16,10,33,14.40
2015,10,16,10,34,14.50
2015,10,16,10,35,14.60
2015,10,16,10,36,14.60
2015,10,16,10,37,14.60
2015,10,16,10,38,14.70
2015,10,16,10,39,14.70
2015,10,16,10,40,14.80
2015,10,16,10,41,14.90
2015,10,16,10,42,14.90
2015,10,16,10,43,15.00
2015,10,16,10,44,15.00
2015,10,16,10,45,15.10
2015,10,16,10,46,15.10
2015,10,16,10,47,15.20
2015,10,16,10,48,15.30
2015,10,16,10,49,15.30
2015,10,16,10,50,15.40
2015,10,16,10,51,15.40
2015,10,16,10,52,15.50
2015,10,16,10,53,15.60
2015,10,16,10,54,15.60
2015,10,16,10,55,15.70
2015,10,16,10,56,15.70
2015,10,16,10,57,15.80
2015,10,16,10,58,15.80
2015,10,16,10,59,15.90
2015,10,16,11,00,16.00
2015,10,16,11,01,16.00
2015,10,16,11,02,16.10
2015,10,16,11,03,16.10
2015,10,16,11,04,16.20
2015,10,16,11,05,16.20
2015,10,16,11,06,16.30
2015,10,16,11,07,16.30
2015,10,16,11,08,16.40
2015,10,16,11,09,16.40
2015,10,16,11,10,16.50
2015,10,16,11,11,16.50
2015,10,16,11,12,16.60
2015,10,16,11,13,16.60
2015,10,16,11,14,16.70
2015,10,16,11,15,16.80
2015,10,16,11,16,16.80
2015,10,16,11,17,16.90
2015,10,16,11,18,16.90
2015,10,16,11,19,17.00
2015,10,16,11,20,17.10
2015,10,16,11,21,17.20
2015,10,16,11,22,17.20
2015,10,16,11,23,17.30
2015,10,16,11,24,17.40
2015,10,16,11,25,17.50
2015,10,16,11,26,17.60
2015,10,16,11,27,17.70
2015,10,16,11,28,17.70
2015,10,16,11,29,17.80
2015,10,16,11,30,17.90
2015,10,16,11,31,18.00
2015,10,16,11,32,18.10
2015,10,16,11,33,18.20
2015,10,16,11,34,18.20
2015,10,16,11,35,18.30
2015,10,16,11,36,18.30
2015,10,16,11,37,18.40
2015,10,16,11,38,18.40
2015,10,16,11,39,18.40
2015,10,16,11,40,18.40
2015,10,16,11,41,18.40
2015,10,16,11,42,18.30
2015,10,16,11,43,18.30
2015,10,16,11,44,18.30
2015,10,16,11,45,18.30
2015,10,16,11,46,18.30
2015,10,16,11,47,18.30
2015,10,16,11,48,18.40
2015,10,16,11,49,18.40
2015,10,16,11,50,18.40
2015,10,16,11,51,18.50
2015,10,16,11,52,18.50
2015,10,16,11,53,18.60
2015,10,16,11,54,18.60
2015,10,16,11,55,18.60
2015,10,16,11,56,18.70
2015,10,16,11,57,18.80
2015,10,16,11,58,18.80
2015,10,16,11,59,18.90
2015,10,16,12,00,19.00
2015,10,16,12,01,19.00
2015,10,16,12,02,19.10
2015,10,16,12,03,19.20
2015,10,16,12,04,19.30
2015,10,16,12,05,19.40
2015,10,16,12,06,19.50
2015,10,16,12,07,19.50
2015,10,16,12,08,19.60
2015,10,16,12,09,19.70
2015,10,16,12,10,19.80
2015,10,16,12,11,19.90
2015,10,16,12,12,19.90
2015,10,16,12,13,19.90
2015,10,16,12,14,20.00
2015,10,16,12,15,20.00
2015,10,16,12,16,20.00
2015,10,16,12,17,20.00
2015,10,16,12,18,20.00
2015,10,16,12,19,19.90
2015,10,16,12,20,19.90
2015,10,16,12,21,20.00
2015,10,16,12,22,20.00
2015,10,16,12,23,20.00
2015,10,16,12,24,20.10
2015,10,16,12,25,20.10
2015,10,16,12,26,20.20
2015,10,16,12,27,20.20
2015,10,16,12,28,20.20
2015,10,16,12,29,20.20
2015,10,16,12,30,20.20
2015,10,16,12,31,20.20
2015,10,16,12,32,20.30
2015,10,16,12,33,20.30
2015,10,16,12,34,20.30
2015,10,16,12,35,20.30
2015,10,16,12,36,20.30
2015,10,16,12,37,20.40
2015,10,16,12,38,20.40
2015,10,16,12,39,20.50
2015,10,16,12,40,20.50
2015,10,16,12,41,20.60
2015,10,16,12,42,20.60
2015,10,16,12,43,20.60
2015,10,16,12,44,20.60
2015,10,16,12,45,20.60
2015,10,16,12,46,20.70
2015,10,16,12,47,20.70
2015,10,16,12,48,20.70
2015,10,16,12,49,20.70
2015,10,16,12,50,20.80
2015,10,16,12,51,20.80
2015,10,16,12,52,20.80
2015,10,16,12,53,20.80
2015,10,16,12,54,20.80
2015,10,16,12,55,20.80
2015,10,16,12,56,20.80
2015,10,16,12,57,20.90
2015,10,16,12,58,20.90
2015,10,16,12,59,20.90
2015,10,16,13,00,20.90
2015,10,16,13,01,20.90
2015,10,16,13,02,20.90
2015,10,16,13,03,20.90
2015,10,16,13,04,20.90
2015,10,16,13,05,20.90
2015,10,16,13,06,20.90
2015,10,16,13,07,20.90
2015,10,16,13,08,20.90
2015,10,16,13,09,20.90
2015,10,16,13,10,20.90
2015,10,16,13,11,21.00
2015,10,16,13,12,21.00
2015,10,16,13,13,21.00
2015,10,16,13,14,21.10
2015,10,16,13,15,21.10
2015,10,16,13,16,21.10
2015,10,16,13,17,21.10
2015,10,16,13,18,21.10
2015,10,16,13,19,21.10
2015,10,16,13,20,21.10
2015,10,16,13,21,21.10
2015,10,16,13,22,21.20
2015,10,16,13,23,21.20
2015,10,16,13,24,21.20
2015,10,16,13,25,21.20
2015,10,16,13,26,21.20
2015,10,16,13,27,21.30
2015,10,16,13,28,21.30
2015,10,16,13,29,21.20
2015,10,16,13,30,21.20
2015,10,16,13,31,21.10
2015,10,16,13,32,21.10
2015,10,16,13,33,21.10
2015,10,16,13,34,21.00
2015,10,16,13,35,21.00
2015,10,16,13,36,20.90
2015,10,16,13,37,20.90
2015,10,16,13,38,20.90
2015,10,16,13,39,20.90
2015,10,16,13,40,20.80
2015,10,16,13,41,20.90
2015,10,16,13,42,20.90
2015,10,16,13,43,20.90
2015,10,16,13,44,20.90
2015,10,16,13,45,20.90
2015,10,16,13,46,20.90
2015,10,16,13,47,20.90
2015,10,16,13,48,20.90
2015,10,16,13,49,20.90
2015,10,16,13,50,21.00
2015,10,16,13,51,21.00
2015,10,16,13,52,21.00
2015,10,16,13,53,21.00
2015,10,16,13,54,21.10
2015,10,16,13,55,21.10
2015,10,16,13,56,21.10
2015,10,16,13,57,21.20
2015,10,16,13,58,21.20
2015,10,16,13,59,21.20
2015,10,16,14,00,21.20
2015,10,16,14,01,21.20
2015,10,16,14,02,21.20
2015,10,16,14,03,21.20
2015,10,16,14,04,21.20
2015,10,16,14,05,21.20
2015,10,16,14,06,21.20
2015,10,16,14,07,21.20
2015,10,16,14,08,21.20
2015,10,16,14,09,21.20
2015,10,16,14,10,21.20
2015,10,16,14,11,21.30
2015,10,16,14,12,21.30
2015,10,16,14,13,21.30
2015,10,16,14,14,21.30
2015,10,16,14,15,21.30
2015,10,16,14,16,21.30
2015,10,16,14,17,21.30
2015,10,16,14,18,21.30
2015,10,16,14,19,21.40
2015,10,16,14,20,21.40
2015,10,16,14,21,21.40
2015,10,16,14,22,21.40
2015,10,16,14,23,21.50
2015,10,16,14,24,21.50
2015,10,16,14,25,21.60
2015,10,16,14,26,21.60
2015,10,16,14,27,21.60
2015,10,16,14,28,21.60
2015,10,16,14,29,21.60
2015,10,16,14,30,21.60
2015,10,16,14,31,21.60
2015,10,16,14,32,21.70
2015,10,16,14,33,21.60
2015,10,16,14,34,21.70
2015,10,16,14,35,21.70
2015,10,16,14,36,21.70
2015,10,16,14,37,21.70
2015,10,16,14,38,21.70
2015,10,16,14,39,21.70
2015,10,16,14,40,21.70
2015,10,16,14,41,21.70
2015,10,16,14,42,21.70
2015,10,16,14,43,21.70
2015,10,16,14,44,21.70
2015,10,16,14,45,21.80
2015,10,16,14,46,21.80
2015,10,16,14,47,21.80
2015,10,16,14,48,21.80
2015,10,16,14,49,21.80
2015,10,16,14,50,21.80
2015,10,16,14,51,21.80
2015,10,16,14,52,21.80
2015,10,16,14,53,21.80
2015,10,16,14,54,21.80
2015,10,16,14,55,21.80
2015,10,16,14,56,21.80
2015,10,16,14,57,21.80
2015,10,16,14,58,21.80
2015,10,16,14,59,21.80
2015,10,16,15,00,21.80
2015,10,16,15,01,21.70
2015,10,16,15,02,21.70
2015,10,16,15,03,21.70
2015,10,16,15,04,21.70
2015,10,16,15,05,21.70
2015,10,16,15,06,21.70
2015,10,16,15,07,21.70
2015,10,16,15,08,21.70
2015,10,16,15,09,21.70
2015,10,16,15,10,21.70
2015,10,16,15,11,21.70
2015,10,16,15,12,21.70
2015,10,16,15,13,21.70
2015,10,16,15,14,21.70
2015,10,16,15,15,21.70
2015,10,16,15,16,21.70
2015,10,16,15,17,21.60
2015,10,16,15,18,21.60
2015,10,16,15,19,21.60
2015,10,16,15,20,21.60
2015,10,16,15,21,21.70
2015,10,16,15,22,21.70
2015,10,16,15,23,21.70
2015,10,16,15,24,21.80
2015,10,16,15,25,21.80
2015,10,16,15,26,21.90
2015,10,16,15,27,21.90
2015,10,16,15,28,21.90
2015,10,16,15,29,21.90
2015,10,16,15,30,21.90
2015,10,16,15,31,22.00
2015,10,16,15,32,22.00
2015,10,16,15,33,22.00
2015,10,16,15,34,22.00
2015,10,16,15,35,22.00
2015,10,16,15,36,22.10
2015,10,16,15,37,22.10
2015,10,16,15,38,22.10
2015,10,16,15,39,22.10
2015,10,16,15,40,22.20
2015,10,16,15,41,22.20
2015,10,16,15,42,22.20
2015,10,16,15,43,22.20
2015,10,16,15,44,22.20
2015,10,16,15,45,22.20
2015,10,16,15,46,22.20
2015,10,16,15,47,22.20
2015,10,16,15,48,22.20
2015,10,16,15,49,22.20
2015,10,16,15,50,22.20
2015,10,16,15,51,22.30
2015,10,16,15,52,22.30
2015,10,16,15,53,22.30
2015,10,16,15,54,22.30
2015,10,16,15,55,22.30
2015,10,16,15,56,22.30
2015,10,16,15,57,22.30
2015,10,16,15,58,22.30
2015,10,16,15,59,22.30
2015,10,16,16,00,22.30
2015,10,16,16,01,22.30
2015,10,16,16,02,22.30
2015,10,16,16,03,22.30
2015,10,16,16,04,22.30
2015,10,16,16,05,22.30
2015,10,16,16,06,22.30
2015,10,16,16,07,22.30
2015,10,16,16,08,22.40
2015,10,16,16,09,22.40
2015,10,16,16,10,22.40
2015,10,16,16,11,22.40
2015,10,16,16,12,22.40
2015,10,16,16,13,22.50
2015,10,16,16,14,22.50
2015,10,16,16,15,22.50
2015,10,16,16,16,22.50
2015,10,16,16,17,22.50
2015,10,16,16,18,22.50
2015,10,16,16,19,22.50
2015,10,16,16,20,22.50
2015,10,16,16,21,22.50
2015,10,16,16,22,22.50
2015,10,16,16,23,22.50
2015,10,16,16,24,22.50
2015,10,16,16,25,22.50
2015,10,16,16,26,22.50
2015,10,16,16,27,22.50
2015,10,16,16,28,22.40
2015,10,16,16,29,22.40
2015,10,16,16,30,22.40
2015,10,16,16,31,22.40
2015,10,16,16,32,22.30
2015,10,16,16,33,22.30
2015,10,16,16,34,22.30
2015,10,16,16,35,22.30
2015,10,16,16,36,22.30
2015,10,16,16,37,22.30
2015,10,16,16,38,22.30
2015,10,16,16,39,22.30
2015,10,16,16,40,22.30
2015,10,16,16,41,22.30
2015,10,16,16,42,22.30
2015,10,16,16,43,22.30
2015,10,16,16,44,22.30
2015,10,16,16,45,22.30
2015,10,16,16,46,22.20
2015,10,16,16,47,22.20
2015,10,16,16,48,22.20
2015,10,16,16,49,22.30
2015,10,16,16,50,22.30
2015,10,16,16,51,22.30
2015,10,16,16,52,22.30
2015,10,16,16,53,22.40
2015,10,16,16,54,22.40
2015,10,16,16,55,22.40
2015,10,16,16,56,22.50
2015,10,16,16,57,22.50
2015,10,16,16,58,22.50
2015,10,16,16,59,22.50
2015,10,16,17,00,22.50
2015,10,16,17,01,22.50
2015,10,16,17,02,22.50
2015,10,16,17,03,22.50
2015,10,16,17,04,22.40
2015,10,16,17,05,22.40
2015,10,16,17,06,22.40
2015,10,16,17,07,22.30
2015,10,16,17,08,22.20
2015,10,16,17,09,22.20
2015,10,16,17,10,22.10
2015,10,16,17,11,22.00
2015,10,16,17,12,21.90
2015,10,16,17,13,21.90
2015,10,16,17,14,21.80
2015,10,16,17,15,21.80
2015,10,16,17,16,21.70
2015,10,16,17,17,21.70
2015,10,16,17,18,21.70
2015,10,16,17,19,21.70
2015,10,16,17,20,21.70
2015,10,16,17,21,21.60
2015,10,16,17,22,21.60
2015,10,16,17,23,21.60
2015,10,16,17,24,21.50
2015,10,16,17,25,21.50
2015,10,16,17,26,21.40
2015,10,16,17,27,21.40
2015,10,16,17,28,21.30
2015,10,16,17,29,21.30
2015,10,16,17,30,21.30
2015,10,16,17,31,21.20
2015,10,16,17,32,21.10
2015,10,16,17,33,21.00
2015,10,16,17,34,20.90
2015,10,16,17,35,20.80
2015,10,16,17,36,20.70
2015,10,16,17,37,20.60
2015,10,16,17,38,20.50
2015,10,16,17,39,20.40
2015,10,16,17,40,20.30
2015,10,16,17,41,20.20
2015,10,16,17,42,20.20
2015,10,16,17,43,20.10